Location: Austin
(30.3000°N, 97.7500°W)
Time: 07:02:01
(UTC-05:00)

Cosmos 1536 Rocket - Pass Details

Date: 16 June 2025
Orbit: 600 x 625 km, 82.5° (Epoch: 07 July)

Event Time Altitude Azimuth Distance (km) Brightness Sun altitude
Exits shadow 05:02:31 29° 248° (WSW) 1,107 4.3 -16.3°
Maximum altitude 05:03:38 34° 280° (W) 996 4.3 -16.1°
Drops below altitude 10° 05:07:33 10° 345° (NNW) 1,943 6.4 -15.5°
Sets 05:09:56 0° 355° (N) 2,849 7.5 -15.1°
